sat.trackr.live / text

‹ back to catalog

HULIANWANG DIGUI-164

NORAD 68656 · 2026-076A

PAYLOAD ACTIVE UNKNOWN

§ Identity

Operator
Country
PRC
Launch date
2026-04-08
Launch site
TAISC
Launch vehicle
Mass (kg)
RCS (m²)

External: N2YO · Heavens-Above · Gunter

§ Orbital elements

Epoch: 2026-09-20T03:59:46.650624Z

Period
108.73 min
Inclination
86.5029°
Eccentricity
0.0001633
Mean motion
13.24407202 rev/d
Perigee alt
1,166.7 km
Apogee alt
1,169.2 km
Semi-major
7,546.1 km
B*
6.2666e-5
RAAN
11.8106°
Arg perigee
116.6851°
Mean anomaly
243.4450°
Rev number
2,194

§ Raw data

HULIANWANG DIGUI-1641 68656U 26076A   26263.16651216  .00000042  00000+0  62666-4 0  99942 68656  86.5029  11.8106 0001633 116.6851 243.4450 13.24407202 21944

JSON: /api/v1/satellites/68656 · /tle

For live sub-satellite position, see the globe view (requires WebGL).

§ Visibility from observer

Set your observer location to see the next 7 days of passes ≥ 10°. The values pass through the URL so the page stays shareable.

No JS? Fill the form by hand. The geolocation button needs JavaScript.